Terug naar catalogus

STARLINK-37026

ActiefCommunicatieVLEO
NORAD 68075·PAYLOAD·🇺🇸 United States

Gelanceerd Mar 4, 2026 vanaf Vandenberg Space Force Base

Loading…

Volgende Passages (komende 24 uur)

TLE

VersSource: CelesTrak SupGP

Epoch: Sep 15, 2026, 04:16 UTC

1 68075C 26042G   26258.17826389  .00068375  00000+0  20198-2 0  2585
2 68075  53.1592  14.8494 0001155  88.2843 113.0838 15.34362632    18

Volg STARLINK-37026 in realtime met AllMySat

Download on the App Store